STARLINK-35476, 66825

Orbit data source: Space-Track

STARLINK-35476, 66825 is a payload satellite owned by SpaceX/Seattle (US) in LEO that was launched on Tue, 02 Dec 2025 UTC via an FALCON 9 launch vehicle from the Air Force Western Test Range (AFWTR). Payload-class satellites include a variety of spacecraft equipped with specific instruments for various scientific and technological missions. These include communications satellites like Starlink; space stations such as the ISS; scientific satellites like the Hubble; Earth observation satellites from companies like Planet Labs, Umbra, and HawkEye 360; GPS; miniature CubeSats for education and research; and military/defense satellites.

Loading next visibility...
Identifier
66825, 2025-280E
Orbit
LEO
Country
Flag of USUS
Related business
Manufacturer
SpaceX/Seattle
Mission
Operational Commercial Communications
Bus & Motor
STARLINK V2MO, Unknown motor
Mass
575 kg wet, ~530 kg dry
Launch date (UTC)
2025-12-02 (7 months ago)
Launch vehicle
FALCON 9
Launch site
Air Force Western Test Range (AFWTR)
Object type
Payload
Rocket body
Debris
Shape & HBR
Box + 2 Pan, 17.7 m
Radar Cross Section
36.964 m², Large (>1 m²)

Expand to show TLE details & history
Last TLE update: 10 hours ago

TLE from 10 hours ago
0 STARLINK-35476
1 66825U 25280E   26171.44133541  .00002429  00000-0  21125-3 0  9997
2 66825  70.0013  75.5251 0002749 270.2867  89.7977 14.98337357 31459
Epoch: 2026-06-20T10:35Z
TLE epoch observation values (Epoch: 2026-06-20T10:35:31.379Z)
Latitude
-0.00003°
Longitude
7.98843°
Altitude
574.451 km
Speed
7.574 km/s
True Right ascension
05h 02m 06s
True Declination
0° 00' 00"
Sunlit
Object was in daylight at epoch
Visualization orbit readout
Latitude
Unknown
Longitude
Unknown
Altitude
Unknown
Speed
Unknown
Apparent Right ascension
Unknown
Apparent Declination
Unknown
Sunlit
N/A
Visualization observer readout
Local Sidereal Time
07:15:00
Azimuth
Unknown
Elevation
Unknown
Doppler factor
Unknown
Orbital elements
Apogee altitude
571.891 km
Perigee altitude
568.071 km
Semi-major axis
6,948.118 km
Eccentricity
0.00027
Inclination
70.0013°
RAAN
75.5251°
Arg. of periapsis
270.2867°
True anomaly
89.8292°
Mean anomaly
89.7977°
Eccentric anomaly
89.81345°
Mean motion
3.74751 °/min
Orbital period
96.06 mins
BSTAR
0.00021125
Loading maneuver chart data...
Computing Atmospheric mass density...
Loading historical data...
Loading historical data...
Loading historical data...
Loading historical data...
Loading historical data...
Loading historical data...
Loading historical data...

Documentation

Showing up to 5 results
|